Rolla, ND

7:52 PM CST on February 24, 2017 (GMT -0600)
Rolla

Weather History for K06D - May, 2014

Change the Weather History Date:

Saturday, May 3, 2014

  Actual Average (KRUG) Record (KRUG)
Temperature  
Mean Temperature 34 °F -  
Max Temperature 39 °F 63 °F 90 °F (1952)
Min Temperature 30 °F 37 °F 16 °F (1967)
Degree Days  
Heating Degree Days 30    
Moisture  
Dew Point 26 °F    
Average Humidity 69    
Maximum Humidity 87    
Minimum Humidity 48    
Precipitation  
Precipitation 0.00 in - - ()
Sea Level Pressure  
Sea Level Pressure 29.93 in    
Wind  
Wind Speed 16 mph (NW)    
Max Wind Speed 26 mph    
Max Gust Speed 33 mph    
Visibility 10 miles    
Events      
Averages and records for this station are not official NWS values.
T = Trace of Precipitation, MM = Missing Value Source: NWS Daily Summary

Daily Weather History Graph

Daily Weather History Graph

Search for Another Location

Airport or City:

Trip Planner

Search our weather history database for the weather conditions in past years. The results will help you decide how hot, cold, wet, or windy it might be!

Date:

Astronomy

May. 03, 2014 Rise Set
Actual Time 6:14 AM CDT 8:57 PM CDT
Civil Twilight 5:38 AM CDT 9:33 PM CDT
Nautical Twilight 4:53 AM CDT 10:19 PM CDT
Astronomical Twilight 3:58 AM CDT 11:13 PM CDT
Moon 9:41 AM CDT (5/3) 12:24 AM CDT (5/3)
Length of Visible Light 15h 54m
Length of Day
14h 42m
Waxing Crescent, 20% of the Moon is Illuminated
May 3
Waxing Crescent
May 6
First Quarter
May 14
Full
May 21
Last Quarter
May 28
New

Hourly Weather History & Observations

Time (CDT) Temp. Windchill Dew Point Humidity Pressure Visibility Wind Dir Wind Speed Gust Speed Precip Events Conditions
12:15 AM 39.2 °F 31.2 °F 32.0 °F 75% 29.82 in 10.0 mi North 13.8 mph - N/A   Partly Cloudy
12:35 AM 37.4 °F 30.3 °F 32.0 °F 81% 29.82 in 10.0 mi NNW 10.4 mph - N/A   Clear
12:55 AM 37.4 °F 31.4 °F 32.0 °F 81% 29.82 in 10.0 mi NNW 8.1 mph - N/A   Clear
1:15 AM 35.6 °F 29.2 °F 32.0 °F 87% 29.83 in 10.0 mi NW 8.1 mph - N/A   Clear
1:35 AM 35.6 °F 29.2 °F 32.0 °F 87% 29.83 in 10.0 mi NW 8.1 mph - N/A   Partly Cloudy
1:55 AM 37.4 °F 29.8 °F 32.0 °F 81% 29.83 in 10.0 mi WNW 11.5 mph - N/A   Scattered Clouds
2:15 AM 37.4 °F 27.2 °F 28.4 °F 70% 29.83 in 10.0 mi NW 19.6 mph 23.0 mph N/A   Partly Cloudy
2:35 AM 37.4 °F 27.5 °F 32.0 °F 81% 29.83 in 10.0 mi NW 18.4 mph 23.0 mph N/A   Clear
2:55 AM 35.6 °F 25.9 °F 32.0 °F 87% 29.83 in 10.0 mi NW 16.1 mph 20.7 mph N/A   Clear
3:15 AM 35.6 °F 25.9 °F 32.0 °F 87% 29.82 in 10.0 mi NW 16.1 mph 21.9 mph N/A   Clear
3:35 AM 35.6 °F 25.9 °F 32.0 °F 87% 29.83 in 10.0 mi NW 16.1 mph - N/A   Clear
3:55 AM 35.6 °F 26.2 °F 30.2 °F 81% 29.84 in 10.0 mi NW 15.0 mph - N/A   Clear
4:15 AM 35.6 °F 26.6 °F 28.4 °F 75% 29.84 in 10.0 mi NW 13.8 mph - N/A   Clear
4:35 AM 35.6 °F 27.5 °F 28.4 °F 75% 29.85 in 10.0 mi NW 11.5 mph - N/A   Clear
4:55 AM 33.8 °F 24.3 °F 28.4 °F 81% 29.85 in 10.0 mi NW 13.8 mph - N/A   Clear
5:15 AM 33.8 °F 24.8 °F 28.4 °F 81% 29.85 in 10.0 mi NW 12.7 mph - N/A   Clear
5:35 AM 32.0 °F 21.6 °F 26.6 °F 80% 29.86 in 10.0 mi NW 15.0 mph 23.0 mph N/A   Clear
5:55 AM 32.0 °F 22.1 °F 26.6 °F 80% 29.86 in 10.0 mi NW 13.8 mph - N/A   Clear
6:15 AM 32.0 °F 21.2 °F 24.8 °F 75% 29.86 in 10.0 mi NW 16.1 mph - N/A   Clear
6:35 AM 32.0 °F 20.5 °F 24.8 °F 75% 29.87 in 10.0 mi NW 18.4 mph - N/A   Clear
6:55 AM 32.0 °F 20.8 °F 24.8 °F 75% 29.88 in 10.0 mi NW 17.3 mph 21.9 mph N/A   Clear
7:15 AM 32.0 °F 20.8 °F 24.8 °F 75% 29.88 in 10.0 mi NW 17.3 mph 21.9 mph N/A   Clear
7:55 AM 32.0 °F 20.5 °F 23.0 °F 69% 29.89 in 10.0 mi NW 18.4 mph 24.2 mph N/A   Clear
8:15 AM 33.8 °F 22.8 °F 24.8 °F 70% 29.89 in 10.0 mi NW 18.4 mph 26.5 mph N/A   Clear
8:35 AM 33.8 °F 21.6 °F 24.8 °F 70% 29.90 in 10.0 mi NW 23.0 mph 28.8 mph N/A   Clear
8:55 AM 33.8 °F 21.6 °F 24.8 °F 70% 29.90 in 10.0 mi NW 23.0 mph 29.9 mph N/A   Clear
9:15 AM 35.6 °F 24.0 °F 26.6 °F 70% 29.90 in 10.0 mi NNW 23.0 mph 27.6 mph N/A   Clear
9:35 AM 33.8 °F 22.2 °F 24.8 °F 70% 29.90 in 10.0 mi NNW 20.7 mph 27.6 mph N/A   Mostly Cloudy
9:55 AM 33.8 °F 22.2 °F 24.8 °F 70% 29.91 in 10.0 mi NNW 20.7 mph 26.5 mph N/A   Overcast
10:15 AM 32.0 °F 19.2 °F 24.8 °F 75% 29.90 in 10.0 mi NW 23.0 mph 29.9 mph N/A   Overcast
10:35 AM 32.0 °F 19.8 °F 24.8 °F 75% 29.91 in 10.0 mi NW 20.7 mph 29.9 mph N/A   Overcast
10:55 AM 33.8 °F 22.2 °F 26.6 °F 75% 29.91 in 10.0 mi NW 20.7 mph 25.3 mph N/A   Overcast
11:15 AM 32.0 °F 19.5 °F 26.6 °F 80% 29.91 in 10.0 mi NNW 21.9 mph 27.6 mph N/A   Overcast
11:35 AM 33.8 °F 21.6 °F 24.8 °F 70% 29.92 in 10.0 mi NNW 23.0 mph 29.9 mph N/A   Overcast
11:55 AM 33.8 °F 23.5 °F 24.8 °F 70% 29.92 in 10.0 mi NNW 16.1 mph 28.8 mph N/A   Overcast
12:15 PM 33.8 °F 21.9 °F 24.8 °F 70% 29.93 in 10.0 mi NNW 21.9 mph 29.9 mph N/A   Overcast
12:35 PM 35.6 °F 24.5 °F 26.6 °F 70% 29.93 in 10.0 mi NW 20.7 mph 26.5 mph N/A   Overcast
12:55 PM 35.6 °F 23.4 °F 24.8 °F 65% 29.93 in 10.0 mi NNW 25.3 mph 32.2 mph N/A   Overcast
1:15 PM 35.6 °F 23.4 °F 24.8 °F 65% 29.92 in 10.0 mi NW 25.3 mph 33.4 mph N/A   Overcast
1:35 PM 35.6 °F 23.4 °F 24.8 °F 65% 29.93 in 10.0 mi NNW 25.3 mph 32.2 mph N/A   Overcast
1:55 PM 35.6 °F 23.2 °F 24.8 °F 65% 29.94 in 10.0 mi NW 26.5 mph - N/A   Overcast
2:15 PM 35.6 °F 23.7 °F 24.8 °F 65% 29.94 in 10.0 mi NW 24.2 mph 29.9 mph N/A   Overcast
2:35 PM 37.4 °F 25.9 °F 24.8 °F 60% 29.95 in 10.0 mi NNW 25.3 mph 31.1 mph N/A   Overcast
2:55 PM 37.4 °F 26.4 °F 24.8 °F 60% 29.95 in 10.0 mi NW 23.0 mph 28.8 mph N/A   Overcast
3:15 PM 37.4 °F 26.6 °F 23.0 °F 56% 29.96 in 10.0 mi NW 21.9 mph 29.9 mph N/A   Overcast
3:35 PM 37.4 °F 26.1 °F 23.0 °F 56% 29.96 in 10.0 mi NW 24.2 mph 31.1 mph N/A   Overcast
3:55 PM 37.4 °F 27.2 °F 23.0 °F 56% 29.96 in 10.0 mi NNW 19.6 mph 28.8 mph N/A   Overcast
4:15 PM 37.4 °F 26.4 °F 23.0 °F 56% 29.96 in 10.0 mi NW 23.0 mph 28.8 mph N/A   Overcast
4:35 PM 37.4 °F 27.5 °F 24.8 °F 60% 29.97 in 10.0 mi NW 18.4 mph 26.5 mph N/A   Overcast
4:55 PM 37.4 °F 26.6 °F 23.0 °F 56% 29.97 in 10.0 mi NW 21.9 mph 28.8 mph N/A   Mostly Cloudy
5:15 PM 39.2 °F 29.3 °F 23.0 °F 52% 29.97 in 10.0 mi NW 20.7 mph - N/A   Mostly Cloudy
5:35 PM 37.4 °F 26.9 °F 23.0 °F 56% 29.98 in 10.0 mi NW 20.7 mph 25.3 mph N/A   Overcast
5:55 PM 39.2 °F 29.0 °F 21.2 °F 49% 29.98 in 10.0 mi NW 21.9 mph 27.6 mph N/A   Mostly Cloudy
6:15 PM 39.2 °F 30.5 °F 23.0 °F 52% 29.99 in 10.0 mi NW 16.1 mph - N/A   Overcast
6:35 PM 39.2 °F 30.5 °F 23.0 °F 52% 29.99 in 10.0 mi NW 16.1 mph 24.2 mph N/A   Mostly Cloudy
6:55 PM 39.2 °F 31.2 °F 23.0 °F 52% 29.99 in 10.0 mi NNW 13.8 mph - N/A   Overcast
7:15 PM 39.2 °F 30.5 °F 23.0 °F 52% 30.00 in 10.0 mi NNW 16.1 mph 23.0 mph N/A   Mostly Cloudy
7:35 PM 39.2 °F 30.8 °F 23.0 °F 52% 30.00 in 10.0 mi NNW 15.0 mph 25.3 mph N/A   Mostly Cloudy
7:55 PM 39.2 °F 31.2 °F 21.2 °F 49% 30.00 in 10.0 mi NW 13.8 mph 18.4 mph N/A   Partly Cloudy
8:15 PM 37.4 °F 29.3 °F 19.4 °F 48% 30.00 in 10.0 mi NNW 12.7 mph - N/A   Partly Cloudy
8:35 PM 37.4 °F 29.8 °F 21.2 °F 52% 30.01 in 10.0 mi NNW 11.5 mph - N/A   Scattered Clouds
8:55 PM 35.6 °F 29.2 °F 24.8 °F 65% 30.01 in 10.0 mi NW 8.1 mph - N/A   Clear
9:15 PM 32.0 °F 24.8 °F 24.8 °F 75% 30.02 in 10.0 mi NW 8.1 mph - N/A   Clear
9:35 PM 32.0 °F 25.6 °F 24.8 °F 75% 30.03 in 10.0 mi NW 6.9 mph - N/A   Clear
9:55 PM 32.0 °F 26.4 °F 24.8 °F 75% 30.03 in 10.0 mi WNW 5.8 mph - N/A   Clear
10:15 PM 32.0 °F 26.4 °F 24.8 °F 75% 30.04 in 10.0 mi WNW 5.8 mph - N/A   Clear
10:35 PM 32.0 °F 24.8 °F 24.8 °F 75% 30.04 in 10.0 mi West 8.1 mph - N/A   Clear
10:55 PM 30.2 °F 23.4 °F 24.8 °F 80% 30.05 in 10.0 mi West 6.9 mph - N/A   Clear
11:15 PM 32.0 °F 24.8 °F 24.8 °F 75% 30.05 in 10.0 mi West 8.1 mph - N/A   Clear
11:35 PM 32.0 °F 25.6 °F 24.8 °F 75% 30.05 in 10.0 mi WNW 6.9 mph - N/A   Clear
11:55 PM 32.0 °F 24.8 °F 24.8 °F 75% 30.05 in 10.0 mi WNW 8.1 mph - N/A   Clear